Regional Weather Roundup
Issued by NWS

Home | Current Version | Previous Version | Text Only | Print | Product List | Glossary Off
Versions: 1 2 3 4 5 6 7 8 9 10 11 12 13 14 15 16 17 18 19 20 21 22 23 24 25 26 27 28 29 30 31 32 33 34 35 36 37 38 39 40 41 42 43 44 45 46 47 48 49 50

000
ASUS44 KMEG 262100
RWRTN
TENNESSEE HOURLY STATE WEATHER ROUNDUP
NATIONAL WEATHER SERVICE MEMPHIS TN
400 PM CDT TUE SEP 26 2017

TNZ002-004-019-021-049-052-054-088>092-262200-
WEST TENNESSEE

CITY           SKY/WX    TMP DP  RH WIND       PRES   REMARKS
MEMPHIS INTL   MOSUNNY   88  65  46 NE8       29.93F HX  90
NWS MEMPHIS      N/A     87 N/A N/A MISG        N/A
JACKSON        MOSUNNY   88  65  46 SE5       29.94F HX  90
$$

TNZ008-025-027-028-033-062-065-066-262200-
NORTH MIDDLE TENNESSEE

CITY           SKY/WX    TMP DP  RH WIND       PRES   REMARKS
NASHVILLE      MOSUNNY   90  61  37 E7        29.94F HX  90
CLARKSVILLE    SUNNY     89  62  40 NE7       29.94F
SMYRNA         MOSUNNY   86  61  42 N7        29.95F
CROSSVILLE     MOSUNNY   82  59  45 N5        30.01F
$$

TNZ061-075-076-078-094-096-097-262200-
SOUTH MIDDLE TENNESSEE

CITY           SKY/WX    TMP DP  RH WIND       PRES   REMARKS
$$

TNZ017-018-042-046-047-262200-
NORTHEAST TENNESSEE

CITY           SKY/WX    TMP DP  RH WIND       PRES   REMARKS
TRI CITIES     PTSUNNY   86  61  42 N7        29.97S
$$

TNZ012-013-036-069-073-074-262200-
CENTRAL EAST TENNESSEE

CITY           SKY/WX    TMP DP  RH WIND       PRES   REMARKS
KNOXVILLE      MOSUNNY   87  62  43 NE9       29.94F
OAK RIDGE      MOSUNNY   89  62  40 CALM      29.96F
$$

TNZ083-085-099-262200-
SOUTHEAST TENNESSEE

CITY           SKY/WX    TMP DP  RH WIND       PRES   REMARKS
CHATTANOOGA    MOSUNNY   89  60  37 NW3       29.93F
$$

SKY/WX REPORTED AS FAIR MEANS FEW OR NO CLOUDS BELOW
12 THOUSAND FEET.




USA.gov is the U.S. government's official web portal to all federal, state and local government web resources and services.